Simultaneous Nadir Overpasses (SNOs) Predictions

Prediction of SNOs between AQUA and METOP-C Satellite Orbit:

Table of predicted SNOs for the next 14.0 days since TLE Epoch: 2/1/2020
Index Date (AQUA) Time (AQUA) Lat,Lon (AQUA) SZA (AQUA ) Date (METOP-C) Time (METOP-C) Lat,Lon (METOP-C) SZA (METOP-C ) Distance(km) Time Diff (sec)
1 02/01/2020 05:49:50 -73.71, -93.03 88.95 02/01/2020 05:48:57 -73.73, -92.96 88.93 2.60 53
2 02/01/2020 06:39:19 73.80, 74.42 91.14 02/01/2020 06:39:34 73.79, 74.53 91.12 3.84 15
3 02/01/2020 07:28:57 -74.43,-119.39 88.19 02/01/2020 07:30:03 -74.45,-116.49 88.30 86.37 66
4 02/04/2020 01:24:01 -73.52, -26.16 89.98 02/04/2020 01:22:49 -73.50, -26.93 89.95 24.34 72
5 02/04/2020 02:13:33 73.77, 140.93 90.29 02/04/2020 02:13:22 73.76, 141.01 90.28 2.70 11
6 02/04/2020 03:03:00 -73.82, -51.54 89.67 02/04/2020 03:04:03 -73.83, -51.48 89.67 2.35 63
7 02/06/2020 21:47:48 73.74,-152.56 89.41 02/06/2020 21:47:11 73.72,-152.51 89.40 2.25 37
8 02/06/2020 22:37:15 -73.79, 14.98 90.56 02/06/2020 22:37:52 -73.80, 15.00 90.54 2.38 37
9 02/09/2020 17:22:03 73.71, -86.07 88.50 02/09/2020 17:21:00 73.69, -86.03 88.49 2.64 63
10 02/09/2020 18:11:30 -73.75, 81.48 91.47 02/09/2020 18:11:41 -73.78, 81.49 91.45 2.40 11
11 02/09/2020 19:01:03 74.07,-111.59 88.87 02/09/2020 19:02:13 74.08,-110.44 88.81 35.15 70
12 02/12/2020 12:56:06 73.12, -18.38 86.94 02/12/2020 12:55:00 73.06, -20.90 87.01 81.72 66
13 02/12/2020 13:45:44 -73.73, 147.98 92.42 02/12/2020 13:45:29 -73.75, 147.97 92.40 1.86 15
14 02/12/2020 14:35:12 73.79, -44.52 87.64 02/12/2020 14:36:06 73.80, -44.56 87.64 1.15 54




NCC Satellite Simultaneous Nadir Overpasses (SNOs) Prediction Service
